ARIANE 2 DEB, 33567

Orbit data source: Space-Track

ARIANE 2 DEB, 33567 is space debris in HEO originally from a launch on Fri, 27 Jan 1989 UTC launched from the French Guiana (FRGUI). Debris objects in space refer to the collection of defunct objects orbiting the Earth. Examples of debris include non-operational satellites, rocket bodies, and fragments generated from explosions, collisions, or faulty payload assembly.

Loading next visibility...
Identifier
33567, 1989-006BK
Orbit
HEO
Country
Flag of FRFR
Related business
Manufacturer
EADS/LV
Mission
Spacecraft
Bus & Motor
Unknown
Mass
Unknown
Launch date (UTC)
1989-01-27 (37 years ago)
Launch vehicle
Unknown
Launch site
French Guiana (FRGUI)
Object type
Payload
Rocket body
Debris
Shape & HBR
Unknown shape, 0.2 m
Radar Cross Section
Medium (>0.1 m² and <1 m²)

Expand to show TLE details & history
Last TLE update: 1 day ago

TLE from 1 day ago
0 ARIANE 2 DEB
1 33567U 89006BK  25349.10671794 -.00000070  00000-0  37421-2 0  9992
2 33567   9.3936 347.1948 7100494 250.8987  28.3697  2.26401759175044
Epoch: 2025-12-15T02:33Z
TLE epoch observation values (Epoch: 2025-12-15T02:33:40.430Z)
Latitude
0.90384°
Longitude
-129.79953°
Altitude
10,824.406 km
Speed
5.483 km/s
True Right ascension
23h 30m 30s
True Declination
0° 54' 06"
Sunlit
Object was in daylight at epoch
Visualization orbit readout
Latitude
Unknown
Longitude
Unknown
Altitude
Unknown
Speed
Unknown
Apparent Right ascension
Unknown
Apparent Declination
Unknown
Sunlit
N/A
Visualization observer readout
Local Sidereal Time
09:56:08
Azimuth
Unknown
Elevation
Unknown
Doppler factor
Unknown
Orbital elements
Apogee altitude
35,524.871 km
Perigee altitude
726.805 km
Semi-major axis
24,503.975 km
Eccentricity
0.71005
Inclination
9.3936°
RAAN
347.1948°
Arg. of periapsis
250.8987°
True anomaly
114.59079°
Mean anomaly
28.3697°
Eccentric anomaly
65.34319°
Mean motion
0.56583 °/min
Orbital period
636.23 mins
BSTAR
0.0037421
Loading maneuver chart data...
Computing Atmospheric mass density...
Loading historical data...
Loading historical data...
Loading historical data...
Loading historical data...
Loading historical data...
Loading historical data...
Loading historical data...

Documentation

Showing up to 5 results
|